This demonstration page uses our WeatherBlox Daily Observations layout. Learn more.

Left ArrowRight Arrow

53.62937, 11.41316

Hourly Observations for October 23, 2015

Temp ( °F °C ) Dew Point ( °F °C ) Humidity (%) Winds ( mph kmh ) Pressure ( in mb ) Visibility ( mi km ) Precip ( " mm )
6:20 am 06:20 Partly Cloudy 48 9 46 8 94 94 W 13 20 30.03 1017 30 48 N/A
6:50 am 06:50 Partly Cloudy 50 10 46 8 88 88 W 15 24 30.03 1017 30 48 N/A
7:20 am 07:20 Partly Cloudy 48 9 46 8 94 94 W 15 24 30.06 1018 30 48 N/A
7:50 am 07:50 Mostly Clear 48 9 45 7 87 87 W 15 24 30.06 1018 30 48 N/A
8:20 am 08:20 Mostly Sunny 48 9 46 8 94 94 W 13 20 30.06 1018 30 48 N/A
8:50 am 08:50 Mostly Sunny 48 9 46 8 94 94 W 13 20 30.06 1018 30 48 N/A
9:20 am 09:20 Mostly Sunny 50 10 46 8 88 88 W 12 19 30.06 1018 30 48 N/A
9:50 am 09:50 Mostly Sunny 50 10 48 9 94 94 W 12 19 30.09 1019 30 48 N/A
10:20 am 10:20 Mostly Sunny 52 11 48 9 88 88 W 13 20 30.09 1019 30 48 N/A
10:50 am 10:50 Mostly Sunny 52 11 48 9 88 88 W 12 19 30.12 1020 30 48 N/A
11:20 am 11:20 Mostly Sunny 54 12 50 10 88 88 W 12 19 30.12 1020 30 48 N/A
11:50 am 11:50 Partly Cloudy 54 12 48 9 82 82 W 15 24 30.12 1020 30 48 N/A
12:20 pm 12:20 Mostly Cloudy 55 13 50 10 82 82 W 13 20 30.15 1021 30 48 N/A
12:50 pm 12:50 Mostly Cloudy 55 13 46 8 72 72 W 14 22 30.15 1021 30 48 N/A
1:20 pm 13:20 Mostly Cloudy 57 14 48 9 72 72 W 15 24 30.15 1021 30 48 N/A
1:50 pm 13:50 Mostly Cloudy 57 14 48 9 72 72 W 17 28 30.15 1021 30 48 N/A
2:20 pm 14:20 Mostly Cloudy 57 14 46 8 67 67 W 17 28 30.15 1021 30 48 N/A
2:50 pm 14:50 Partly Cloudy 57 14 46 8 67 67 W 9 15 30.15 1021 30 48 N/A
3:20 pm 15:20 Mostly Cloudy 57 14 48 9 72 72 W 14 22 30.15 1021 30 48 N/A
3:50 pm 15:50 Cloudy 55 13 48 9 77 77 W 14 22 30.15 1021 30 48 N/A
4:20 pm 16:20 Mostly Sunny 57 14 46 8 67 67 W 12 19 30.15 1021 30 48 N/A
4:50 pm 16:50 Mostly Sunny 55 13 46 8 72 72 W 8 13 30.15 1021 30 48 N/A
5:20 pm 17:20 Mostly Sunny 54 12 46 8 77 77 W 8 13 30.15 1021 30 48 N/A
5:50 pm 17:50 Mostly Sunny 52 11 45 7 77 77 W 7 11 30.18 1022 30 48 N/A
6:20 pm 18:20 Mostly Clear 50 10 45 7 82 82 SW 7 11 30.18 1022 30 48 N/A
6:50 pm 18:50 Partly Cloudy 50 10 45 7 82 82 WSW 3 6 30.18 1022 30 48 N/A

Powered by AerisWeather